Location: Huntsville
(41.2590°N, 111.7678°W)
Time: 19:50:11
(UTC+00:00)

BlueWalker 3 - Pass Details

Date: 04 December 2022
Orbit: 499 x 517 km, 53.2° (Epoch: 29 January)

Event Time Altitude Azimuth Distance (km) Brightness Sun altitude
Rises 01:09:33 0° 304° (NW) 2,630 6.2 -13.1°
Reaches altitude 10° 01:12:38 10° 330° (NNW) 1,738 4.8 -13.6°
Maximum altitude 01:14:51 14° 4° (N) 1,473 4.1 -14.0°
Enters shadow 01:15:57 13° 23° (NNE) 1,538 4.0 -14.2°
